Regional Weather Roundup
Issued by NWS Grand Forks, ND

Home | Current Version | Previous Version | Text Only | Print | Product List | Glossary On
Versions: 1 2 3 4 5 6 7 8 9 10 11 12 13 14 15 16 17 18 19 20 21 22 23 24 25 26 27 28 29 30 31 32 33 34 35 36 37 38 39 40 41 42 43 44 45 46 47 48 49 50
000
ASUS43 KFGF 272231
RWRFGF
PRAIRIE TO PINES  WEATHER ROUNDUP
NATIONAL WEATHER SERVICE EASTERN NORTH DAKOTA/GRAND FORKS ND
500 PM CDT SAT AUG 27 2016

 **SATELLITE DATA USED TO AUGMENT SKY COVER AT AUTOMATED STATIONS**
 *****  WEATHER ACROSS EASTERN NORTH DAKOTA  *****

CITY           SKY/WX    TMP DP  RH WIND       PRES   REMARKS
GRAND FORKS    LGT RAIN  66  61  84 S12       29.89F
GRAND FRKS AFB FAIR      66  63  88 SE10      29.89S THUNDER
GRAND FRKS NWS   N/A     64 N/A N/A S10         N/A
DEVILS LAKE    NOT AVBL
FARGO          FAIR      74  58  57 SE12      29.90F
WAHPETON ARPT  CLOUDY    73  55  53 SE12      29.93F
$$

 ***** WEATHER ACROSS CENTRAL AND WESTERN NORTH DAKOTA  *****

CITY           SKY/WX    TMP DP  RH WIND       PRES   REMARKS
BISMARCK       SUNNY     80  50  34 VRB7      29.88F
MINOT          FAIR      79  45  29 S10       29.84F
JAMESTOWN      PTSUNNY   77  59  53 S9        29.88F
MINOT AFB      FAIR      78  44  29 VRB6      29.83F
GARRISON         N/A     79  48  33 S9        29.86F
WILLISTON      SUNNY     82  43  25 S9        29.81F
DICKINSON      MOSUNNY   78  40  25 S18G25    29.85F
HETTINGER      MOSUNNY   79  44  28 S13G20    29.90F
$$

 *****  OTHER AIRPORT OBSERVATIONS IN OUR AREA  *****

CITY           SKY/WX    TMP DP  RH WIND       PRES   REMARKS
WALHALLA       FAIR      66  66 100 SE8       29.89S
GRAFTON AIRPOR TSTM      57  55  94 S12G22    29.93R VSB 3/4
VALLEY CITY AR FAIR      75  64  69 SW15      29.91S
CANDO          FAIR      75  50  41 W7        29.90S
CAVALIER APRT  FAIR      68  61  77 SE12G17   29.90F
GWINNER        FAIR      75  63  64 SW12      29.92S
SHEYENNE NWR     N/A     77  61  58 SW9       29.95S
ROLLA          FAIR      72  48  43 W8        29.90S
 ***** THE ABOVE OBSERVATIONS ARE NON NWS ARE NOT QUALITY
       CONTROLLED AND MAY MIS-REPORT RAIN FOR SNOW...
$$

  *****  WEATHER ACROSS NORTHERN MINNESOTA  *****

CITY           SKY/WX    TMP DP  RH WIND       PRES   REMARKS
FLAG ISLAND    FAIR      63  57  82 CALM      29.94S HAZE
WARROAD        FAIR      61  57  88 SE5       29.95F
ROSEAU         FAIR      63  57  82 S10       29.94F
HALLOCK        RAIN      64  63  94 S7        29.91F
THF RVR FALLS  FAIR      65  57  75 S6        29.93F
BAUDETTE       FAIR      59  56  89 S6        29.96R
WASKISH        LGT RAIN  57  55  94 SE9         N/A
CROOKSTON      RAIN      66  63  88 S5        29.93R
STEPHEN NDAWN    N/A     64  61  88 SE3         N/A
GREENBUSH NDAW   N/A     66  57  72 SW5         N/A
$$
  *****  WEATHER ACROSS CENTRAL AND WEST MINNESOTA  *****

CITY           SKY/WX    TMP DP  RH WIND       PRES   REMARKS
FOSSTON        FAIR      63  55  77 S6        29.94S
BEMIDJI        FAIR      57  54  89 S6        29.96S
PARK RAPIDS    FAIR      70  56  61 NW6       29.98R
ELBOW LAKE     FAIR      71  59  67 SE12      29.97F
WADENA         DRIZZLE   66  57  72 S7        29.96F
DETROIT LAKES  FAIR      70  57  64 S7        29.96F
MOORHEAD       FAIR      72  59  64 SE10      29.93R
FERGUS FALLS   CLOUDY    66  61  82 S9        29.97S
MORRIS MN      FAIR      72  59  64 SE5       29.97S
STAPLES        FAIR      70  55  60 S9        29.99S
$$
  *****  WEATHER ELSEWHERE ACROSS MINNESOTA  *****

CITY           SKY/WX    TMP DP  RH WIND       PRES   REMARKS
DULUTH         PTSUNNY   63  58  83 E9        30.02F
INTRNTL FALLS  RAIN      57  55  93 SW5       30.00R FOG
ELY            CLOUDY    64  52  63 SE6       30.03S
CLOQUET        CLOUDY    63  57  82 E3        30.02S
WHEATON        FAIR      75  63  64 S8        29.96S
BRAINERD       CLOUDY    65  58  78 S9        30.01R
HIBBING        CLOUDY    66  55  67 SE9       30.00F
ALEXANDRIA     CLOUDY    68  57  68 S9        30.00F
SAINT CLOUD    CLOUDY    63  62  97 CALM      30.01S FOG
MINNEAPOLIS    CLOUDY    67  62  84 S5        30.00S
$$

  *****  WEATHER ACROSS SOUTH DAKOTA  *****

CITY           SKY/WX    TMP DP  RH WIND       PRES   REMARKS
SIOUX FALLS    FAIR      76  65  68 S7        29.97F
BROOKINGS      FAIR      74  61  63 SW10      29.97S
WATERTOWN      FAIR      73  60  63 S13       29.96S
HURON          MOSUNNY   81  59  47 S8        29.92S
SISSETON         N/A     74  61  63 SE9       29.92S
ABERDEEN       SUNNY     79  60  52 S10       29.91F
MITCHELL       SUNNY     83  60  45 S8        29.93F
PIERRE         MOSUNNY   82  55  39 E9G17     29.88F
MOBRIDGE       MOSUNNY   82  49  31 S9        29.87F
RAPID CITY     MOSUNNY   81  50  33 SE10      29.88F
$$

  *****  SOME WEATHER IN NEARBY STATES *****

CITY           SKY/WX    TMP DP  RH WIND       PRES   REMARKS
GLASGOW MT     SUNNY     85  37  18 SW15      29.72F
GREAT FALLS MT CLOUDY    82  34  17 W22G28    29.75F
CHEYENNE WY    MOSUNNY   79  34  19 SW12      30.10F
SCOTTSBLUFF NE SUNNY     84  49  29 E12       29.97F
OMAHA NE       FAIR      83  63  50 SW6       29.98F
DES MOINES IA  PTSUNNY   81  69  67 S3        29.99F
DAVENPORT IA   FAIR      83  69  62 SW8       30.01S
CHICAGO IL     PTSUNNY   83  69  62 SW10      30.00F
EAU CLAIRE WI  CLOUDY    65  63  93 SE5       30.01S
LA CROSSE WI   CLOUDY    71  65  81 S5        30.00S
$$

  *****  SOME NATIONAL WEATHER *****

CITY           SKY/WX    TMP DP  RH WIND       PRES   REMARKS
LA GUARDIA NY  PTSUNNY   86  58  38 SE13      30.17R
RALEIGH NC     PTSUNNY   87  75  67 NE8G17    30.08R THUNDER HX  96
ATLANTA GA     FAIR      91  67  44 SE9       30.04F HX  94
NEW ORLEANS LA PTSUNNY   89  73  59 E8        29.91S HX  97
OKLAHOMA CITY  PTSUNNY   83  68  60 W3        29.97S
ALBUQUERQUE NM PTSUNNY   82  42  24 SW9       30.09F
SALT LAKE CITY MOSUNNY   89  25  10 NW14G21   30.00F
LOS ANGELES CA SUNNY     73  57  57 W14       29.97F
BOISE ID       SUNNY     88  31  13 VRB5      29.89F
SEATTLE WA     PTSUNNY   68  54  60 SW14      29.91S
$$

*** WEATHER ACROSS MANITOBA...SASKATCHEWAN AND ONTARIO ***
                ***ONTARIO***

CITY           SKY/WX    TMP DP  RH WIND       PRES   REMARKS
GERALDTON      PTSUNNY   70  54  56 S7        30.05F
THUNDER BAY    CLOUDY    64  55  72 SE3       30.07R
SIOUX LOOKOUT  CLOUDY    61  59  94 S5        29.98S
TORONTO        PTSUNNY   79  57  47 E6        30.16S
BIG TROUT LK   SUNNY     72  55  56 VRB2      29.91S
PICKLE LAKE    PTSUNNY   73  48  40 SW12      29.97S
DRYDEN         LGT RAIN  61  59  94 W6        29.98S
KENORA         CLOUDY    59  57  94 E5        29.96F
$$
                *** MANITOBA***

CITY           SKY/WX    TMP DP  RH WIND       PRES   REMARKS
BRANDON        MOSUNNY   73  54  49 W9        29.86S
DAUPHIN        PTSUNNY   72  54  53 W6        29.83S
ISLAND LAKE    TSTM      64  63  94 CALM      29.86R
PILOT MOUND      N/A     73  46  38 W6          N/A
THE PAS        PTSUNNY   64  55  72 CALM      29.81F
THOMPSON       PTSUNNY   70  54  56 SE7       29.83S
WINNIPEG       PTSUNNY   70  55  60 S17       29.88S
LYNN LAKE      MOSUNNY   68  41  37 MISG      29.79F
CHURCHILL      PTSUNNY   66  48  52 S12       29.86S
GILLAM         MOSUNNY   68  55  64 N6        29.86S
$$
                ***SASKATCHEWAN***

CITY           SKY/WX    TMP DP  RH WIND       PRES   REMARKS
ESTEVAN        PTSUNNY   79  43  27 S7        29.81F
KINDERSLEY     CLOUDY    81  48  32 SW9       29.57
LLOYDMINSTER   PTSUNNY   70  55  60 SW8       29.59R
PRINCE ALBERT  MOSUNNY   70  54  56 SE12      29.70
REGINA         PTSUNNY   79  43  27 S6G17     29.75F
YORKTON        SUNNY     72  46  40 SW8       29.81F
N. BATTLEFORD  PTSUNNY   77  52  41 S20       29.61F
LA RONGE       PTSUNNY   64  52  63 E8        29.73F
SASKATOON      PTSUNNY   75  52  43 S17       29.66F
SWIFT CURRENT  SUNNY     79  43  27 SW20      29.66S
$$
NOTE: THESE ARE AUTOMATED STATIONS WITH LIMITED QUALITY CONTROL
      "FAIR" INDICATES FEW OR NO CLOUDS BELOW 12,000 FEET WITH NO
      SIGNIFICANT WEATHER AND/OR OBSTRUCTIONS TO VISIBILITY.
      SKY/WX - SKY CONDITION AND SIGNIFICANT WEATHER.
      TMP - AIR TEMPERATURE.    DP   - DEWPOINT TEMPERATURE.
      RH  - RELATIVE HUMIDITY.  PRES - PRESSURE.
      HX  - HEAT INDEX.         WCI  - WIND CHILL INDEX.
$




USA.gov is the U.S. government's official web portal to all federal, state and local government web resources and services.